TimeEST,TemperatureF,Dew PointF,Humidity,Sea Level PressureIn,VisibilityMPH,Wind Direction,Wind SpeedMPH,Gust SpeedMPH,PrecipitationIn,Events,Conditions,WindDirDegrees,DateUTC
12:53 AM,51.1,30.0,44,29.95,10.0,South,6.9,-,N/A,,Clear,180,2011-11-13 05:53:00
1:53 AM,52.0,28.9,41,29.95,10.0,SSW,9.2,-,N/A,,Clear,200,2011-11-13 06:53:00
2:53 AM,52.0,28.9,41,29.95,10.0,SSW,11.5,-,N/A,,Clear,200,2011-11-13 07:53:00
3:53 AM,52.0,30.0,43,29.94,10.0,South,9.2,-,N/A,,Clear,190,2011-11-13 08:53:00
4:53 AM,53.1,30.9,43,29.93,10.0,SSW,11.5,-,N/A,,Mostly Cloudy,200,2011-11-13 09:53:00
5:53 AM,53.1,30.9,43,29.92,10.0,SSW,10.4,-,N/A,,Overcast,200,2011-11-13 10:53:00
6:53 AM,53.1,30.9,43,29.91,10.0,South,11.5,-,N/A,,Overcast,190,2011-11-13 11:53:00
7:53 AM,54.0,32.0,43,29.91,10.0,South,11.5,-,N/A,,Overcast,190,2011-11-13 12:53:00
8:53 AM,55.0,33.1,43,29.89,10.0,South,13.8,23.0,N/A,,Overcast,190,2011-11-13 13:53:00
9:53 AM,57.0,35.1,44,29.88,10.0,South,18.4,28.8,N/A,,Mostly Cloudy,190,2011-11-13 14:53:00
10:53 AM,57.9,37.0,46,29.88,10.0,SSW,17.3,26.5,N/A,,Overcast,200,2011-11-13 15:53:00
11:53 AM,60.1,39.9,47,29.84,10.0,South,18.4,23.0,N/A,,Overcast,190,2011-11-13 16:53:00
12:53 PM,61.0,42.1,50,29.80,10.0,SSW,16.1,28.8,N/A,,Overcast,200,2011-11-13 17:53:00
1:53 PM,64.0,45.0,50,29.76,10.0,SSW,21.9,31.1,N/A,,Mostly Cloudy,200,2011-11-13 18:53:00
2:53 PM,64.0,45.0,50,29.76,10.0,SSW,15.0,23.0,N/A,,Overcast,210,2011-11-13 19:53:00
3:53 PM,64.9,46.0,50,29.76,10.0,SSW,11.5,-,N/A,,Overcast,200,2011-11-13 20:53:00
4:53 PM,64.0,46.0,52,29.73,10.0,SSW,16.1,27.6,N/A,,Partly Cloudy,200,2011-11-13 21:53:00
5:53 PM,64.0,46.9,54,29.73,10.0,SSW,18.4,26.5,N/A,,Clear,200,2011-11-13 22:53:00
6:53 PM,63.0,46.9,56,29.77,10.0,SSW,9.2,20.7,N/A,,Mostly Cloudy,200,2011-11-13 23:53:00
7:53 PM,64.0,46.0,52,29.76,10.0,South,15.0,21.9,N/A,,Overcast,190,2011-11-14 00:53:00
8:53 PM,64.9,46.9,52,29.78,10.0,SSW,16.1,27.6,N/A,,Overcast,200,2011-11-14 01:53:00
9:53 PM,64.0,46.9,54,29.78,10.0,SSW,15.0,24.2,N/A,,Mostly Cloudy,200,2011-11-14 02:53:00
10:53 PM,64.0,48.9,58,29.78,10.0,SSW,13.8,23.0,N/A,,Mostly Cloudy,210,2011-11-14 03:53:00
11:53 PM,66.0,48.9,54,29.78,10.0,SSW,21.9,33.4,N/A,,Mostly Cloudy,210,2011-11-14 04:53:00